Challis, ID

5:20 PM MDT on October 01, 2016 (GMT -0600)
Challis

Weather History for KLLJ - April, 2014

Change the Weather History Date:

Sunday, April 20, 2014

  Actual Average Record
Temperature  
Mean Temperature 51 °F 44 °F  
Max Temperature 64 °F 58 °F 82 °F (1994)
Min Temperature 38 °F 30 °F 8 °F (1927)
Degree Days  
Heating Degree Days 14 21  
Month to date heating degree days 420 453  
Since 1 July heating degree days 7022 7398  
Cooling Degree Days 0 0  
Month to date cooling degree days 0 0  
Year to date cooling degree days 0 0  
Growing Degree Days 2 (Base 50)    
Moisture  
Dew Point 14 °F    
Average Humidity 32    
Maximum Humidity 53    
Minimum Humidity 10    
Precipitation  
Precipitation 0.00 in 0.03 in 0.65 in (2001)
Month to date precipitation 0.58 0.49  
Year to date precipitation 2.26 2.33  
Sea Level Pressure  
Sea Level Pressure 30.06 in    
Wind  
Wind Speed 6 mph (North)    
Max Wind Speed 20 mph    
Max Gust Speed 24 mph    
Visibility 10 miles    
Events      
T = Trace of Precipitation, MM = Missing Value Source: NWS Daily Summary

Daily Weather History Graph

Daily Weather History Graph

Search for Another Location

Airport or City:

Trip Planner

Search our weather history database for the weather conditions in past years. The results will help you decide how hot, cold, wet, or windy it might be!

Date:

Astronomy

Apr. 20, 2014 Rise Set
Actual Time 6:44 AM MDT 8:27 PM MDT
Civil Twilight 6:13 AM MDT 8:58 PM MDT
Nautical Twilight 5:35 AM MDT 9:36 PM MDT
Astronomical Twilight 4:55 AM MDT 10:17 PM MDT
Moon 1:15 AM MDT (4/20) 11:04 AM MDT (4/20)
Length of Visible Light 14h 45m
Length of Day
13h 43m
Waning Gibbous, 68% of the Moon is Illuminated
Apr 20
Waning Gibbous
Apr 22
Last Quarter
Apr 29
New
May 6
First Quarter
May 14
Full

Hourly Weather History & Observations

Time (MDT) Temp. Windchill Dew Point Humidity Pressure Visibility Wind Dir Wind Speed Gust Speed Precip Events Conditions
12:55 AM 46.9 °F - 17.1 °F 30% 29.87 in 10.0 mi Calm Calm - N/A   Mostly Cloudy
1:55 AM 45.0 °F - 18.0 °F 34% 29.88 in 10.0 mi Calm Calm - N/A   Overcast
2:55 AM 43.0 °F - 19.0 °F 38% 29.91 in 10.0 mi Calm Calm - N/A   Overcast
3:55 AM 43.0 °F - 19.9 °F 40% 29.94 in 10.0 mi Calm Calm - N/A   Clear
4:55 AM 43.0 °F 36.8 °F 24.1 °F 47% 29.98 in 10.0 mi North 11.5 mph - N/A   Clear
5:55 AM 43.0 °F 37.7 °F 26.1 °F 51% 30.00 in 10.0 mi NNW 9.2 mph - N/A   Clear
6:55 AM 41.0 °F 33.9 °F 25.0 °F 53% 30.05 in 10.0 mi NNW 12.7 mph - N/A   Clear
7:55 AM 44.1 °F 40.1 °F 25.0 °F 47% 30.09 in 10.0 mi North 6.9 mph - N/A   Clear
8:55 AM 48.0 °F - 21.0 °F 34% 30.11 in 10.0 mi NNE 9.2 mph - N/A   Clear
9:55 AM 48.9 °F - 14.0 °F 25% 30.12 in 10.0 mi Variable 4.6 mph - N/A   Clear
10:55 AM 52.0 °F - 10.9 °F 19% 30.12 in 10.0 mi NE 5.8 mph - N/A   Clear
12:55 PM 55.9 °F - 5.0 °F 13% 30.11 in 10.0 mi Variable 5.8 mph - N/A   Clear
1:55 PM 57.0 °F - 3.9 °F 12% 30.09 in 10.0 mi SE 6.9 mph - N/A   Clear
2:55 PM 60.1 °F - 5.0 °F 11% 30.08 in 10.0 mi Variable 3.5 mph - N/A   Clear
3:55 PM 61.0 °F - 6.1 °F 11% 30.07 in 10.0 mi NE 5.8 mph - N/A   Clear
5:55 PM 64.0 °F - 7.0 °F 11% 30.03 in 10.0 mi Variable 4.6 mph - N/A   Clear
6:55 PM 61.0 °F - 6.1 °F 11% 30.07 in 10.0 mi NW 18.4 mph 24.2 mph N/A   Clear
7:55 PM 57.0 °F - 5.0 °F 12% 30.09 in 10.0 mi WNW 13.8 mph - N/A   Clear
8:55 PM 50.0 °F - 10.0 °F 20% 30.13 in 10.0 mi WNW 8.1 mph - N/A   Clear
9:55 PM 44.1 °F 40.1 °F 12.0 °F 27% 30.17 in 10.0 mi NW 6.9 mph - N/A   Clear
10:55 PM 44.1 °F 42.5 °F 12.9 °F 28% 30.17 in 10.0 mi ESE 3.5 mph - N/A   Clear
11:55 PM 43.0 °F 41.3 °F 14.0 °F 31% 30.18 in 10.0 mi SSW 3.5 mph - N/A   Clear